User: anonymous   Login
Location: Unspecified
(0.0000°N, 0.0000°E)
Time: 15:55:02
(UTC+00:00)
Language:

ESSA 8 - Orbit

View from above orbital plane
View from above orbital plane
View from above satellite
View from above satellite

Ground track
Ground track

The orbit data is extracted from the following two-line orbital elements,

1  3615U 68114A   19015.93651545 -.00000018  00000-0  15137-3 0  9999
2  3615 101.3031 357.5946 0031424 229.0248 185.2819 12.56201762296807
Epoch (UTC): 15 January 2019 22:28:34
Eccentricity: 0.0031424
inclination: 101.3031°
perigee height: 1414 km
apogee height: 1463 km
right ascension of ascending node: 357.5946°
argument of perigee: 229.0248°
revolutions per day: 12.56201762
mean anomaly at epoch: 185.2819°
orbit number at epoch: 29680

The dashed part of the orbit path shows where the satellite is in the earth's shadow,  

DLR